Location: Chanteloup
(48.8560°N, 2.7390°E)
Time: 12:47:35
(UTC+00:00)

deb Chang Zheng 4 - Pass Details

Date: 24 October 2021
Orbit: 595 x 616 km, 98.6° (Epoch: 06 December)

Event Time Altitude Azimuth Distance (km) Brightness Sun altitude
Rises 17:41:01 0° 166° (SSE) 2,826 6.9 -10.3°
Reaches altitude 10° 17:43:10 10° 167° (SSE) 1,930 6.0 -10.6°
Maximum altitude 17:47:21 82° 256° (WSW) 612 3.6 -11.3°
Drops below altitude 10° 17:51:36 10° 344° (NNW) 1,957 6.3 -12.0°
Sets 17:53:48 0° 345° (NNW) 2,869 7.1 -12.4°
